Madison, SD

7:37 PM CST on November 15, 2019 (GMT -0600)
Madison Municipal

Weather History for KMDS - September, 2019

Change the Weather History Date:

Wednesday, September 25, 2019

  Actual Average Record
Temperature  
Mean Temperature 56 °F -  
Max Temperature 62 °F 68 °F 80 °F (2014)
Min Temperature 50 °F 43 °F 39 °F (2011)
Degree Days  
Heating Degree Days 8    
Growing Degree Days 6 (Base 50)    
Moisture  
Dew Point 51 °F    
Average Humidity 82    
Maximum Humidity 100    
Minimum Humidity 55    
Precipitation  
Precipitation 0.00 in - - ()
Sea Level Pressure  
Sea Level Pressure 29.88 in    
Wind  
Wind Speed 10 mph ()    
Max Wind Speed 17 mph    
Max Gust Speed 23 mph    
Visibility 10.0 miles    
Events      
Averages and records for this station are not official NWS values.
T = Trace of Precipitation, MM = Missing Value Source: Averaged Metar Reports

Daily Weather History Graph

Daily Weather History Graph

Search for Another Location

Airport or City:

Astronomy

Sep. 25, 2019 Rise Set
Actual Time 7:18 AM CDT 7:20 PM CDT
Civil Twilight 6:50 AM CDT 7:49 PM CDT
Nautical Twilight 6:16 AM CDT 8:22 PM CDT
Astronomical Twilight 5:41 AM CDT 8:57 PM CDT
Moon 3:02 AM CDT (9/25) 6:03 PM CDT (9/25)
Length of Visible Light 12h 59m
Length of Day
12h 01m
Waning Crescent, 14% of the Moon is Illuminated
Sep 25
Waning Crescent
Sep 28
New
Oct 5
First Quarter
Oct 13
Full
Oct 21
Last Quarter

Hourly Weather History & Observations

Time (CDT) Temp. Dew Point Humidity Pressure Visibility Wind Dir Wind Speed Gust Speed Precip Events Conditions
12:15 AM 57.2 °F 53.6 °F 88% 29.72 in 10.0 mi North - - N/A   Clear
12:20 AM 57.2 °F 53.6 °F 88% 29.73 in 10.0 mi North - - N/A   Clear
12:35 AM 57.2 °F 51.8 °F 82% 29.73 in 10.0 mi North - - N/A   Clear
12:55 AM 59.0 °F 51.8 °F 77% 29.74 in 10.0 mi North - - N/A   Clear
1:00 AM 57.2 °F 51.8 °F 82% 29.74 in 10.0 mi North - - N/A   Clear
1:15 AM 59.0 °F 51.8 °F 77% 29.75 in 10.0 mi WNW 10.4 mph - N/A   Clear
1:20 AM 59.0 °F 51.8 °F 77% 29.75 in 10.0 mi WNW 9.2 mph - N/A   Clear
1:35 AM 59.0 °F 51.8 °F 77% 29.75 in 10.0 mi WNW 11.5 mph - N/A   Clear
1:55 AM 59.0 °F 51.8 °F 77% 29.76 in 10.0 mi NW 11.5 mph - N/A   Mostly Cloudy
2:15 AM 59.0 °F 53.6 °F 82% 29.76 in 10.0 mi NW 9.2 mph - N/A   Scattered Clouds
2:20 AM 59.0 °F 53.6 °F 82% 29.76 in 10.0 mi NW 9.2 mph - N/A   Partly Cloudy
2:35 AM 57.2 °F 53.6 °F 88% 29.76 in 10.0 mi WNW 9.2 mph - N/A   Scattered Clouds
2:40 AM 57.2 °F 53.6 °F 88% 29.77 in 10.0 mi WNW 9.2 mph - N/A   Mostly Cloudy
2:55 AM 57.2 °F 53.6 °F 88% 29.77 in 10.0 mi NW 9.2 mph - N/A   Overcast
3:15 AM 57.2 °F 55.4 °F 94% 29.78 in 10.0 mi WNW 9.2 mph - N/A   Mostly Cloudy
3:20 AM 57.2 °F 55.4 °F 94% 29.79 in 10.0 mi West 8.1 mph - N/A   Mostly Cloudy
3:35 AM 57.2 °F 55.4 °F 94% 29.79 in 10.0 mi WNW 8.1 mph - N/A   Mostly Cloudy
3:40 AM 57.2 °F 55.4 °F 94% 29.78 in 10.0 mi WNW 9.2 mph - N/A   Scattered Clouds
3:55 AM 55.4 °F 55.4 °F 100% 29.80 in 10.0 mi WNW 11.5 mph - N/A   Partly Cloudy
4:15 AM 55.4 °F 53.6 °F 94% 29.80 in 10.0 mi WNW 9.2 mph - N/A   Partly Cloudy
4:20 AM 55.4 °F 53.6 °F 94% 29.79 in 10.0 mi WNW 9.2 mph - N/A   Scattered Clouds
4:35 AM 55.4 °F 53.6 °F 94% 29.80 in 10.0 mi WNW 9.2 mph - N/A   Scattered Clouds
4:40 AM 55.4 °F 53.6 °F 94% 29.80 in 10.0 mi WNW 8.1 mph - N/A   Scattered Clouds
4:55 AM 55.4 °F 53.6 °F 94% 29.82 in 10.0 mi WNW 9.2 mph - N/A   Partly Cloudy
5:00 AM 55.4 °F 53.6 °F 94% 29.82 in 10.0 mi WNW 6.9 mph - N/A   Partly Cloudy
5:15 AM 55.4 °F 53.6 °F 94% 29.83 in 10.0 mi WNW 8.1 mph - N/A   Clear
5:35 AM 53.6 °F 53.6 °F 100% 29.83 in 10.0 mi NW 9.2 mph - N/A   Clear
5:55 AM 53.6 °F 53.6 °F 100% 29.83 in 10.0 mi WNW 8.1 mph - N/A   Partly Cloudy
6:00 AM 53.6 °F 53.6 °F 100% 29.84 in 10.0 mi WNW 9.2 mph - N/A   Partly Cloudy
6:15 AM 53.6 °F 53.6 °F 100% 29.83 in 10.0 mi WNW 8.1 mph - N/A   Clear
6:35 AM 53.6 °F 53.6 °F 100% 29.84 in 10.0 mi WNW 6.9 mph - N/A   Clear
6:40 AM 53.6 °F 53.6 °F 100% 29.85 in 10.0 mi WNW 8.1 mph - N/A   Clear
6:55 AM 53.6 °F 53.6 °F 100% 29.86 in 10.0 mi WNW 8.1 mph - N/A   Clear
7:00 AM 53.6 °F 53.6 °F 100% 29.86 in 10.0 mi NW 6.9 mph - N/A   Clear
7:15 AM 53.6 °F 53.6 °F 100% 29.86 in 10.0 mi WNW 6.9 mph - N/A   Clear
7:20 AM 53.6 °F 53.6 °F 100% 29.86 in 10.0 mi WNW 6.9 mph - N/A   Clear
7:35 AM 53.6 °F 53.6 °F 100% 29.86 in 10.0 mi WNW 8.1 mph - N/A   Clear
7:55 AM 53.6 °F 53.6 °F 100% 29.87 in 10.0 mi WNW 9.2 mph - N/A   Clear
8:15 AM 53.6 °F 53.6 °F 100% 29.87 in 10.0 mi WNW 10.4 mph - N/A   Clear
8:35 AM 53.6 °F 53.6 °F 100% 29.87 in 10.0 mi WNW 11.5 mph - N/A   Clear
8:40 AM 53.6 °F 53.6 °F 100% 29.87 in 10.0 mi WNW 9.2 mph - N/A   Clear
8:55 AM 53.6 °F 53.6 °F 100% 29.87 in 10.0 mi WNW 10.4 mph - N/A   Clear
9:00 AM 53.6 °F 53.6 °F 100% 29.88 in 10.0 mi NW 13.8 mph 17.3 mph N/A   Clear
9:15 AM 55.4 °F 51.8 °F 88% 29.88 in 10.0 mi NW 12.7 mph - N/A   Clear
9:35 AM 55.4 °F 51.8 °F 88% 29.89 in 10.0 mi NW 12.7 mph - N/A   Clear
9:40 AM 57.2 °F 51.8 °F 82% 29.88 in 10.0 mi WNW 11.5 mph - N/A   Clear
9:55 AM 57.2 °F 50.0 °F 77% 29.89 in 10.0 mi WNW 12.7 mph - N/A   Clear
10:00 AM 57.2 °F 50.0 °F 77% 29.89 in 10.0 mi WNW 9.2 mph - N/A   Clear
10:15 AM 59.0 °F 48.2 °F 67% 29.90 in 10.0 mi NW 11.5 mph - N/A   Clear
10:35 AM 59.0 °F 48.2 °F 67% 29.90 in 10.0 mi NW 12.7 mph - N/A   Clear
10:40 AM 59.0 °F 48.2 °F 67% 29.91 in 10.0 mi WNW 10.4 mph - N/A   Clear
10:55 AM 57.2 °F 48.2 °F 72% 29.90 in 10.0 mi WNW 12.7 mph - N/A   Clear
11:00 AM 57.2 °F 48.2 °F 72% 29.91 in 10.0 mi WNW 13.8 mph 19.6 mph N/A   Clear
11:15 AM 57.2 °F 48.2 °F 72% 29.91 in 10.0 mi NW 13.8 mph 18.4 mph N/A   Clear
11:35 AM 59.0 °F 48.2 °F 67% 29.91 in 10.0 mi WNW 13.8 mph - N/A   Clear
11:40 AM 59.0 °F 48.2 °F 67% 29.92 in 10.0 mi WNW 15.0 mph - N/A   Clear
11:55 AM 59.0 °F 46.4 °F 63% 29.92 in 10.0 mi NW 15.0 mph 23.0 mph N/A   Clear
12:00 PM 59.0 °F 46.4 °F 63% 29.93 in 10.0 mi NW 16.1 mph 23.0 mph N/A   Clear
12:15 PM 59.0 °F 46.4 °F 63% 29.92 in 10.0 mi WNW 15.0 mph - N/A   Clear
12:35 PM 59.0 °F 46.4 °F 63% 29.92 in 10.0 mi WNW 12.7 mph - N/A   Clear
12:55 PM 59.0 °F 46.4 °F 63% 29.92 in 10.0 mi WNW 9.2 mph - N/A   Clear
1:00 PM 59.0 °F 46.4 °F 63% 29.92 in 10.0 mi WNW 12.7 mph 16.1 mph N/A   Clear
1:15 PM 59.0 °F 46.4 °F 63% 29.92 in 10.0 mi WNW 13.8 mph 18.4 mph N/A   Clear
1:35 PM 59.0 °F 46.4 °F 63% 29.92 in 10.0 mi WNW 12.7 mph 20.7 mph N/A   Clear
1:55 PM 59.0 °F 46.4 °F 63% 29.91 in 10.0 mi West 11.5 mph 18.4 mph N/A   Clear
2:00 PM 59.0 °F 46.4 °F 63% 29.91 in 10.0 mi West 15.0 mph 23.0 mph N/A   Clear
2:15 PM 59.0 °F 44.6 °F 59% 29.92 in 10.0 mi West 13.8 mph 21.9 mph N/A   Clear
2:35 PM 59.0 °F 44.6 °F 59% 29.92 in 10.0 mi WNW 12.7 mph 20.7 mph N/A   Clear
2:40 PM 60.8 °F 44.6 °F 55% 29.92 in 10.0 mi WNW 17.3 mph 20.7 mph N/A   Clear
2:55 PM 59.0 °F 44.6 °F 59% 29.91 in 10.0 mi WNW 13.8 mph 18.4 mph N/A   Clear
3:15 PM 59.0 °F 44.6 °F 59% 29.91 in 10.0 mi West 13.8 mph 19.6 mph N/A   Clear
3:35 PM 59.0 °F 44.6 °F 59% 29.92 in 10.0 mi West 15.0 mph - N/A   Clear
3:40 PM 59.0 °F 46.4 °F 63% 29.92 in 10.0 mi West 12.7 mph 17.3 mph N/A   Clear
3:55 PM 60.8 °F 46.4 °F 59% 29.91 in 10.0 mi West 11.5 mph 16.1 mph N/A   Clear
4:00 PM 60.8 °F 46.4 °F 59% 29.91 in 10.0 mi West 11.5 mph 17.3 mph N/A   Clear
4:15 PM 60.8 °F 46.4 °F 59% 29.91 in 10.0 mi West 15.0 mph 19.6 mph N/A   Clear
4:35 PM 62.6 °F 46.4 °F 55% 29.91 in 10.0 mi West 12.7 mph 18.4 mph N/A   Clear
4:40 PM 62.6 °F 46.4 °F 55% 29.91 in 10.0 mi West 9.2 mph 18.4 mph N/A   Clear
4:55 PM 60.8 °F 46.4 °F 59% 29.91 in 10.0 mi West 12.7 mph 19.6 mph N/A   Clear
5:00 PM 60.8 °F 48.2 °F 63% 29.91 in 10.0 mi West 13.8 mph 19.6 mph N/A   Clear
5:15 PM 59.0 °F 50.0 °F 72% 29.92 in 10.0 mi West 11.5 mph - N/A   Partly Cloudy
5:35 PM 59.0 °F 50.0 °F 72% 29.92 in 10.0 mi West 10.4 mph - N/A   Clear
5:40 PM 59.0 °F 50.0 °F 72% 29.92 in 10.0 mi West 10.4 mph - N/A   Clear
5:55 PM 59.0 °F 50.0 °F 72% 29.93 in 10.0 mi West 13.8 mph - N/A   Clear
6:00 PM 59.0 °F 50.0 °F 72% 29.93 in 10.0 mi West 12.7 mph - N/A   Clear
6:15 PM 59.0 °F 50.0 °F 72% 29.94 in 10.0 mi West 11.5 mph - N/A   Clear
6:35 PM 57.2 °F 50.0 °F 77% 29.94 in 10.0 mi West 9.2 mph 18.4 mph N/A   Clear
6:55 PM 57.2 °F 50.0 °F 77% 29.94 in 10.0 mi West 10.4 mph - N/A   Clear
7:00 PM 57.2 °F 50.0 °F 77% 29.94 in 10.0 mi West 11.5 mph - N/A   Clear
7:15 PM 57.2 °F 53.6 °F 88% 29.94 in 10.0 mi West 9.2 mph - N/A   Clear
7:20 PM 55.4 °F 53.6 °F 94% 29.94 in 10.0 mi West 10.4 mph - N/A   Clear
7:35 PM 55.4 °F 53.6 °F 94% 29.95 in 10.0 mi West 11.5 mph - N/A   Clear
7:40 PM 55.4 °F 53.6 °F 94% 29.95 in 10.0 mi West 10.4 mph - N/A   Clear
7:55 PM 55.4 °F 53.6 °F 94% 29.96 in 10.0 mi West 12.7 mph - N/A   Clear
8:00 PM 55.4 °F 53.6 °F 94% 29.96 in 10.0 mi West 10.4 mph - N/A   Clear
8:15 PM 55.4 °F 51.8 °F 88% 29.96 in 10.0 mi West 11.5 mph - N/A   Clear
8:35 PM 55.4 °F 51.8 °F 88% 29.97 in 10.0 mi WSW 12.7 mph 18.4 mph N/A   Clear
8:55 PM 53.6 °F 50.0 °F 88% 29.98 in 10.0 mi West 12.7 mph - N/A   Clear
9:15 PM 53.6 °F 50.0 °F 88% 29.98 in 10.0 mi West 13.8 mph 17.3 mph N/A   Clear
9:20 PM 53.6 °F 50.0 °F 88% 29.98 in 10.0 mi West 12.7 mph 18.4 mph N/A   Clear
9:35 PM 53.6 °F 50.0 °F 88% 29.99 in 10.0 mi West 11.5 mph - N/A   Clear
9:55 PM 53.6 °F 50.0 °F 88% 29.99 in 10.0 mi WSW 15.0 mph - N/A   Clear
10:00 PM 53.6 °F 50.0 °F 88% 29.99 in 10.0 mi West 11.5 mph - N/A   Clear
10:15 PM 53.6 °F 50.0 °F 88% 30.00 in 10.0 mi West 9.2 mph - N/A   Clear
10:35 PM 53.6 °F 50.0 °F 88% 30.00 in 10.0 mi West 12.7 mph 17.3 mph N/A   Clear
10:55 PM 51.8 °F 50.0 °F 94% 30.00 in 10.0 mi West 10.4 mph 17.3 mph N/A   Scattered Clouds
11:00 PM 53.6 °F 50.0 °F 88% 30.00 in 10.0 mi West 11.5 mph - N/A   Mostly Cloudy
11:15 PM 53.6 °F 50.0 °F 88% 30.00 in 10.0 mi West 12.7 mph 17.3 mph N/A   Overcast
11:35 PM 51.8 °F 50.0 °F 94% 30.00 in 10.0 mi West 11.5 mph - N/A   Scattered Clouds
11:55 PM 50.0 °F 50.0 °F 100% 30.00 in 10.0 mi West 10.4 mph - N/A   Clear